When you browse on this site, cookies collect data to enhance your experience and personalize the content and advertising you see.
Visit our Privacy Policy to learn more. By continuing to use the site, you agree to this use of cookies and data.
  • In Hungary
  • List of Countries
  • For 7 days
  • Water Temperature
  • Weather Map
  • News
  • Weather Widgets
  • user-avatar
    Login

    Hourly Weather Sesto Fiorentino

    Today, 13 November, Wednesday

    Time Temperature Precipitation Wind Pressure Humidity
    00:00 +12°C° 0.7 mm 1 mps 740 mmHg 92%
    01:00 +12°C° 0.7 mm 1 mps 740 mmHg 91%
    02:00 +12°C° 2.1 mm 1 mps 740 mmHg 93%
    03:00 +12°C° 2.1 mm 1 mps 739 mmHg 94%
    04:00 +12°C° 2.1 mm 1 mps 739 mmHg 95%
    05:00 +12°C° 1.9 mm 1 mps 739 mmHg 95%
    06:00 +12°C° 1.9 mm 1 mps 740 mmHg 95%
    07:00 +12°C° 1.9 mm 1 mps 740 mmHg 94%
    08:00 +12°C° 0.6 mm 1 mps 740 mmHg 93%
    09:00 +12°C° 0.6 mm 1 mps 740 mmHg 92%
    10:00 +12°C° 0.6 mm 1 mps 741 mmHg 91%
    11:00 +13°C° 0.7 mm 1 mps 741 mmHg 87%
    12:00 +13°C° 0.7 mm 1 mps 742 mmHg 84%
    13:00 +14°C° 0.7 mm 2 mps 742 mmHg 81%
    14:00 +13°C° 0.4 mm 2 mps 743 mmHg 82%
    15:00 +13°C° 0.4 mm 2 mps 743 mmHg 83%
    16:00 +13°C° 0.4 mm 2 mps 744 mmHg 83%
    17:00 +12°C° 0 mm 1 mps 744 mmHg 85%
    18:00 +12°C° 0 mm 1 mps 745 mmHg 87%
    19:00 +11°C° 0 mm 1 mps 746 mmHg 88%
    20:00 +11°C° 0 mm 1 mps 746 mmHg 89%
    21:00 +11°C° 0 mm 1 mps 747 mmHg 89%
    22:00 +11°C° 0 mm 1 mps 748 mmHg 89%
    23:00 +11°C° 0 mm 1 mps 748 mmHg 89%

    Tomorrow, 14 November, Thursday

    Time Temperature Precipitation Wind Pressure Humidity
    00:00 +11°C° 0 mm 1 mps 748 mmHg 89%
    01:00 +10°C° 0 mm 0 mps 748 mmHg 88%
    02:00 +11°C° 0 mm 1 mps 748 mmHg 89%
    03:00 +10°C° 0 mm 1 mps 748 mmHg 89%
    04:00 +10°C° 0 mm 1 mps 748 mmHg 89%
    05:00 +10°C° 0 mm 1 mps 748 mmHg 89%
    06:00 +10°C° 0 mm 1 mps 748 mmHg 89%
    07:00 +9°C° 0 mm 1 mps 749 mmHg 89%
    08:00 +10°C° 0 mm 1 mps 749 mmHg 86%
    09:00 +11°C° 0 mm 1 mps 749 mmHg 82%
    10:00 +12°C° 0 mm 1 mps 750 mmHg 79%
    11:00 +13°C° 0 mm 1 mps 750 mmHg 76%
    12:00 +14°C° 0 mm 1 mps 750 mmHg 74%
    13:00 +15°C° 0 mm 1 mps 750 mmHg 71%
    14:00 +14°C° 0 mm 1 mps 749 mmHg 73%
    15:00 +14°C° 0 mm 1 mps 749 mmHg 76%
    16:00 +14°C° 0 mm 1 mps 748 mmHg 78%
    17:00 +13°C° 0 mm 1 mps 748 mmHg 81%
    18:00 +13°C° 0 mm 2 mps 748 mmHg 83%
    19:00 +12°C° 0 mm 2 mps 748 mmHg 86%
    20:00 +12°C° 0 mm 2 mps 748 mmHg 86%
    21:00 +13°C° 0 mm 2 mps 747 mmHg 86%
    22:00 +13°C° 0 mm 1 mps 747 mmHg 86%
    23:00 +13°C° 0.2 mm 2 mps 747 mmHg 86%

    Day after tomorrow, 15 November, Friday

    Time Temperature Precipitation Wind Pressure Humidity
    00:00 +13°C° 0.2 mm 2 mps 747 mmHg 87%
    01:00 +12°C° 0.2 mm 3 mps 746 mmHg 88%
    02:00 +12°C° 0.3 mm 3 mps 746 mmHg 88%
    03:00 +12°C° 0.3 mm 4 mps 746 mmHg 87%
    04:00 +12°C° 0.3 mm 4 mps 746 mmHg 87%
    05:00 +12°C° 2.9 mm 4 mps 746 mmHg 88%
    06:00 +12°C° 2.9 mm 4 mps 746 mmHg 90%
    07:00 +12°C° 2.9 mm 4 mps 746 mmHg 91%
    08:00 +12°C° 6.9 mm 2 mps 747 mmHg 95%
    09:00 +10°C° 6.9 mm 2 mps 747 mmHg 95%
    10:00 +11°C° 6.9 mm 1 mps 747 mmHg 94%
    11:00 +11°C° 1.8 mm 1 mps 747 mmHg 93%
    12:00 +12°C° 1.8 mm 2 mps 747 mmHg 93%
    13:00 +12°C° 1.8 mm 2 mps 747 mmHg 92%
    14:00 +10°C° 3.1 mm 2 mps 747 mmHg 92%
    15:00 +10°C° 3.1 mm 2 mps 747 mmHg 92%
    16:00 +9°C° 3.1 mm 2 mps 747 mmHg 92%
    17:00 +9°C° 1.2 mm 2 mps 748 mmHg 92%
    18:00 +9°C° 1.2 mm 1 mps 748 mmHg 92%
    19:00 +9°C° 1.2 mm 1 mps 749 mmHg 91%
    20:00 +9°C° 0 mm 1 mps 750 mmHg 91%
    21:00 +9°C° 0 mm 1 mps 750 mmHg 90%
    22:00 +9°C° 0 mm 1 mps 751 mmHg 90%
    23:00 +10°C° 0.1 mm 1 mps 751 mmHg 90%

    16 November, Saturday

    Time Temperature Precipitation Wind Pressure Humidity
    00:00 +10°C° 0.1 mm 1 mps 751 mmHg 89%
    01:00 +10°C° 0.1 mm 1 mps 752 mmHg 89%
    02:00 +10°C° 0.1 mm 1 mps 752 mmHg 90%
    03:00 +11°C° 0.1 mm 1 mps 752 mmHg 91%
    04:00 +11°C° 0.1 mm 1 mps 752 mmHg 91%
    05:00 +11°C° 0.1 mm 1 mps 753 mmHg 91%
    06:00 +11°C° 0.1 mm 1 mps 753 mmHg 91%
    07:00 +11°C° 0.1 mm 1 mps 753 mmHg 91%
    08:00 +12°C° 0.1 mm 1 mps 754 mmHg 88%
    09:00 +12°C° 0.1 mm 1 mps 754 mmHg 85%
    10:00 +13°C° 0.1 mm 1 mps 754 mmHg 82%
    11:00 +13°C° 0.6 mm 1 mps 754 mmHg 83%
    12:00 +13°C° 0.6 mm 2 mps 754 mmHg 83%
    13:00 +13°C° 0.6 mm 2 mps 753 mmHg 84%
    14:00 +12°C° 2.7 mm 2 mps 753 mmHg 86%
    15:00 +10°C° 2.7 mm 3 mps 753 mmHg 87%
    16:00 +9°C° 2.7 mm 3 mps 753 mmHg 89%
    17:00 +9°C° 1.5 mm 3 mps 752 mmHg 89%
    18:00 +9°C° 1.5 mm 3 mps 752 mmHg 89%
    19:00 +9°C° 1.5 mm 3 mps 751 mmHg 88%
    20:00 +9°C° 1.2 mm 3 mps 751 mmHg 89%
    21:00 +9°C° 1.2 mm 3 mps 750 mmHg 89%
    22:00 +9°C° 1.2 mm 3 mps 749 mmHg 89%
    23:00 +9°C° 0.1 mm 3 mps 749 mmHg 89%

    17 November, Sunday

    Time Temperature Precipitation Wind Pressure Humidity
    00:00 +10°C° 0.1 mm 3 mps 748 mmHg 90%
    01:00 +10°C° 0.1 mm 3 mps 747 mmHg 90%
    02:00 +10°C° 0 mm 4 mps 746 mmHg 89%
    03:00 +10°C° 0 mm 4 mps 745 mmHg 89%
    04:00 +11°C° 0 mm 4 mps 745 mmHg 88%
    05:00 +11°C° 0.3 mm 4 mps 744 mmHg 88%
    06:00 +11°C° 0.3 mm 4 mps 744 mmHg 88%
    07:00 +11°C° 0.3 mm 4 mps 743 mmHg 88%
    08:00 +12°C° 2.2 mm 4 mps 742 mmHg 87%
    09:00 +13°C° 2.2 mm 4 mps 742 mmHg 86%
    10:00 +13°C° 2.2 mm 3 mps 741 mmHg 85%
    11:00 +13°C° 0.4 mm 3 mps 740 mmHg 84%
    12:00 +14°C° 0.4 mm 4 mps 739 mmHg 83%
    13:00 +14°C° 0.4 mm 4 mps 738 mmHg 81%
    14:00 +14°C° 0.4 mm 4 mps 739 mmHg 82%
    15:00 +13°C° 0.4 mm 3 mps 739 mmHg 83%
    16:00 +13°C° 0.4 mm 3 mps 739 mmHg 84%
    17:00 +13°C° 1.1 mm 2 mps 740 mmHg 87%
    18:00 +13°C° 1.1 mm 2 mps 741 mmHg 89%
    19:00 +13°C° 1.1 mm 2 mps 741 mmHg 91%
    20:00 +13°C° 0.7 mm 2 mps 742 mmHg 92%
    21:00 +13°C° 0.7 mm 2 mps 743 mmHg 93%
    22:00 +12°C° 0.7 mm 2 mps 744 mmHg 95%
    23:00 +11°C° 0.3 mm 3 mps 745 mmHg 93%

    18 November, Monday

    Time Temperature Precipitation Wind Pressure Humidity
    00:00 +11°C° 0.3 mm 4 mps 746 mmHg 92%
    01:00 +10°C° 0.3 mm 5 mps 747 mmHg 90%
    02:00 +11°C° 0.7 mm 4 mps 747 mmHg 90%
    03:00 +11°C° 0.7 mm 3 mps 748 mmHg 90%
    04:00 +12°C° 0.7 mm 2 mps 749 mmHg 90%
    05:00 +12°C° 0.1 mm 2 mps 749 mmHg 89%
    06:00 +12°C° 0.1 mm 2 mps 750 mmHg 88%
    07:00 +10°C° 0.1 mm 2 mps 750 mmHg 88%
    08:00 +12°C° 0.1 mm 2 mps 751 mmHg 86%
    09:00 +13°C° 0.1 mm 2 mps 751 mmHg 83%
    10:00 +13°C° 0.1 mm 2 mps 752 mmHg 81%
    11:00 +13°C° 0.1 mm 2 mps 752 mmHg 81%
    12:00 +13°C° 0.1 mm 2 mps 752 mmHg 81%
    13:00 +14°C° 0.1 mm 2 mps 752 mmHg 82%
    14:00 +13°C° 1.2 mm 2 mps 751 mmHg 85%
    15:00 +13°C° 1.2 mm 2 mps 751 mmHg 88%
    16:00 +13°C° 1.2 mm 1 mps 751 mmHg 92%
    17:00 +13°C° 1.9 mm 2 mps 751 mmHg 92%
    18:00 +13°C° 1.9 mm 2 mps 751 mmHg 93%
    19:00 +13°C° 1.9 mm 2 mps 751 mmHg 94%
    20:00 +13°C° 1.2 mm 2 mps 752 mmHg 93%
    21:00 +13°C° 1.2 mm 2 mps 752 mmHg 93%
    22:00 +13°C° 1.2 mm 2 mps 752 mmHg 93%
    23:00 +13°C° 0.2 mm 2 mps 752 mmHg 92%
    Show more